Time,TemperatureF,DewpointF,PressureIn,WindDirection,WindDirectionDegrees,WindSpeedMPH,WindSpeedGustMPH,Humidity,HourlyPrecipIn,Conditions,Clouds,dailyrainin,SoftwareType,DateUTC
2013-05-12 00:02:00,43.0,31.0,30.09,WNW,285,1.0,4.0,62,0.00,,,0.00,,2013-05-12 05:02:00,
2013-05-12 00:12:00,43.0,31.0,30.09,WNW,285,1.0,4.0,62,0.00,,,0.00,,2013-05-12 05:12:00,
2013-05-12 00:22:00,43.0,32.0,30.09,WSW,249,1.0,6.0,64,0.00,,,0.00,,2013-05-12 05:22:00,
2013-05-12 00:32:00,43.0,32.0,30.09,West,281,1.0,6.0,64,0.00,,,0.00,,2013-05-12 05:32:00,
2013-05-12 00:42:00,43.0,32.0,30.09,West,281,1.0,6.0,64,0.00,,,0.00,,2013-05-12 05:42:00,
2013-05-12 00:51:00,43.0,32.0,30.09,WSW,257,2.0,5.0,65,0.00,,,0.00,,2013-05-12 05:51:00,
2013-05-12 01:01:00,42.0,32.0,30.09,WSW,246,3.0,7.0,67,0.00,,,0.00,,2013-05-12 06:01:00,
2013-05-12 01:11:00,42.0,32.0,30.09,WSW,246,3.0,7.0,67,0.00,,,0.00,,2013-05-12 06:11:00,
2013-05-12 01:21:00,42.0,31.0,30.09,WSW,248,2.0,10.0,66,0.00,,,0.00,,2013-05-12 06:21:00,
2013-05-12 01:32:00,43.0,29.0,30.09,WNW,295,4.0,8.0,58,0.00,,,0.00,,2013-05-12 06:32:00,
2013-05-12 01:42:00,43.0,29.0,30.09,WNW,295,4.0,8.0,58,0.00,,,0.00,,2013-05-12 06:42:00,
2013-05-12 01:51:00,43.0,29.0,30.09,NW,319,4.0,11.0,58,0.00,,,0.00,,2013-05-12 06:51:00,
2013-05-12 02:01:00,42.0,30.0,30.09,West,268,3.0,10.0,62,0.00,,,0.00,,2013-05-12 07:01:00,
2013-05-12 02:11:00,42.0,30.0,30.09,West,268,3.0,10.0,62,0.00,,,0.00,,2013-05-12 07:11:00,
2013-05-12 02:21:00,42.0,31.0,30.09,NW,310,3.0,10.0,65,0.00,,,0.00,,2013-05-12 07:21:00,
2013-05-12 02:32:00,41.0,31.0,30.10,WNW,298,3.0,9.0,66,0.00,,,0.00,,2013-05-12 07:32:00,
2013-05-12 02:42:00,41.0,31.0,30.10,WNW,298,3.0,9.0,66,0.00,,,0.00,,2013-05-12 07:42:00,
2013-05-12 02:52:00,41.0,31.0,30.10,NW,318,3.0,9.0,67,0.00,,,0.00,,2013-05-12 07:52:00,
2013-05-12 03:02:00,40.0,30.0,30.10,NW,321,3.0,8.0,67,0.00,,,0.00,,2013-05-12 08:02:00,
2013-05-12 03:11:00,40.0,30.0,30.10,NW,321,3.0,8.0,67,0.00,,,0.00,,2013-05-12 08:11:00,
2013-05-12 03:21:00,40.0,30.0,30.10,NW,304,2.0,8.0,67,0.00,,,0.00,,2013-05-12 08:21:00,
2013-05-12 03:32:00,39.0,30.0,30.10,West,279,3.0,8.0,70,0.00,,,0.00,,2013-05-12 08:32:00,
2013-05-12 03:41:00,39.0,30.0,30.10,West,279,3.0,8.0,70,0.00,,,0.00,,2013-05-12 08:41:00,
2013-05-12 03:52:00,39.0,30.0,30.10,West,273,3.0,8.0,70,0.00,,,0.00,,2013-05-12 08:52:00,
2013-05-12 04:01:00,39.0,30.0,30.10,NNW,338,2.0,9.0,71,0.00,,,0.00,,2013-05-12 09:01:00,
2013-05-12 04:11:00,39.0,30.0,30.10,NNW,338,2.0,9.0,71,0.00,,,0.00,,2013-05-12 09:11:00,
2013-05-12 04:21:00,39.0,30.0,30.11,NW,305,3.0,8.0,71,0.00,,,0.00,,2013-05-12 09:21:00,
2013-05-12 04:33:00,39.0,30.0,30.11,West,277,3.0,7.0,71,0.00,,,0.00,,2013-05-12 09:33:00,
2013-05-12 04:42:00,39.0,30.0,30.11,West,277,3.0,7.0,71,0.00,,,0.00,,2013-05-12 09:42:00,
2013-05-12 04:52:00,39.0,30.0,30.11,NW,308,2.0,7.0,71,0.00,,,0.00,,2013-05-12 09:52:00,
2013-05-12 05:03:00,38.0,30.0,30.11,WNW,289,1.0,7.0,72,0.00,,,0.00,,2013-05-12 10:03:00,
2013-05-12 05:12:00,38.0,30.0,30.11,WNW,289,1.0,7.0,72,0.00,,,0.00,,2013-05-12 10:12:00,
2013-05-12 05:22:00,38.0,29.0,30.11,NW,320,3.0,9.0,71,0.00,,,0.00,,2013-05-12 10:22:00,
2013-05-12 05:33:00,38.0,29.0,30.11,NW,313,3.0,9.0,71,0.00,,,0.00,,2013-05-12 10:33:00,
2013-05-12 05:42:00,38.0,29.0,30.11,NW,313,3.0,9.0,71,0.00,,,0.00,,2013-05-12 10:42:00,
2013-05-12 05:52:00,39.0,30.0,30.11,WNW,297,3.0,7.0,70,0.00,,,0.00,,2013-05-12 10:52:00,
2013-05-12 06:02:00,39.0,29.0,30.12,West,267,2.0,8.0,68,0.00,,,0.00,,2013-05-12 11:02:00,
2013-05-12 06:12:00,39.0,29.0,30.12,West,267,2.0,8.0,68,0.00,,,0.00,,2013-05-12 11:12:00,
2013-05-12 06:22:00,39.0,30.0,30.12,NW,309,1.0,5.0,70,0.00,,,0.00,,2013-05-12 11:22:00,
2013-05-12 06:32:00,39.0,30.0,30.13,NW,316,2.0,7.0,70,0.00,,,0.00,,2013-05-12 11:32:00,
2013-05-12 06:42:00,39.0,30.0,30.13,NW,316,2.0,7.0,70,0.00,,,0.00,,2013-05-12 11:42:00,
2013-05-12 06:52:00,40.0,30.0,30.13,West,267,1.0,7.0,68,0.00,,,0.00,,2013-05-12 11:52:00,
2013-05-12 07:01:00,41.0,31.0,30.14,NW,310,3.0,9.0,67,0.00,,,0.00,,2013-05-12 12:01:00,
2013-05-12 07:11:00,41.0,31.0,30.14,NW,310,3.0,9.0,67,0.00,,,0.00,,2013-05-12 12:11:00,
2013-05-12 07:21:00,41.0,31.0,30.14,NW,311,5.0,11.0,66,0.00,,,0.00,,2013-05-12 12:21:00,
2013-05-12 07:32:00,41.0,31.0,30.14,NW,304,4.0,11.0,68,0.00,,,0.00,,2013-05-12 12:32:00,
2013-05-12 07:41:00,41.0,31.0,30.14,NW,304,4.0,11.0,68,0.00,,,0.00,,2013-05-12 12:41:00,
2013-05-12 07:52:00,42.0,32.0,30.15,NNW,330,4.0,10.0,67,0.00,,,0.00,,2013-05-12 12:52:00,
2013-05-12 08:01:00,43.0,32.0,30.15,NNW,333,5.0,9.0,65,0.00,,,0.00,,2013-05-12 13:01:00,
2013-05-12 08:11:00,43.0,32.0,30.15,NNW,333,5.0,9.0,65,0.00,,,0.00,,2013-05-12 13:11:00,
2013-05-12 08:21:00,43.0,32.0,30.15,NW,305,4.0,12.0,64,0.00,,,0.00,,2013-05-12 13:21:00,
2013-05-12 08:32:00,44.0,31.0,30.15,NW,310,7.0,16.0,59,0.00,,,0.00,,2013-05-12 13:32:00,
2013-05-12 08:42:00,44.0,31.0,30.15,NW,310,7.0,16.0,59,0.00,,,0.00,,2013-05-12 13:42:00,
2013-05-12 08:52:00,44.0,31.0,30.15,NW,311,8.0,13.0,59,0.00,,,0.00,,2013-05-12 13:52:00,
2013-05-12 09:01:00,45.0,31.0,30.16,WNW,302,7.0,13.0,58,0.00,,,0.00,,2013-05-12 14:01:00,
2013-05-12 09:11:00,45.0,31.0,30.16,WNW,302,7.0,13.0,58,0.00,,,0.00,,2013-05-12 14:11:00,
2013-05-12 09:21:00,45.0,30.0,30.16,NNW,339,7.0,12.0,56,0.00,,,0.00,,2013-05-12 14:21:00,
2013-05-12 09:31:00,45.0,31.0,30.16,NW,325,5.0,14.0,58,0.00,,,0.00,,2013-05-12 14:31:00,
2013-05-12 09:42:00,46.0,31.0,30.16,NW,319,5.0,13.0,56,0.00,,,0.00,,2013-05-12 14:42:00,
2013-05-12 09:52:00,46.0,31.0,30.16,NW,319,5.0,13.0,56,0.00,,,0.00,,2013-05-12 14:52:00,
2013-05-12 10:01:00,47.0,31.0,30.16,NW,307,5.0,13.0,54,0.00,,,0.00,,2013-05-12 15:01:00,
2013-05-12 10:11:00,47.0,31.0,30.16,NW,307,5.0,13.0,54,0.00,,,0.00,,2013-05-12 15:11:00,
2013-05-12 10:21:00,47.0,32.0,30.17,NNW,345,5.0,11.0,55,0.00,,,0.00,,2013-05-12 15:21:00,
2013-05-12 10:34:00,47.0,32.0,30.17,NW,304,8.0,13.0,56,0.00,,,0.00,,2013-05-12 15:34:00,
2013-05-12 10:42:00,47.0,32.0,30.17,NW,304,8.0,13.0,56,0.00,,,0.00,,2013-05-12 15:42:00,
2013-05-12 10:53:00,48.0,32.0,30.17,NW,310,6.0,12.0,54,0.00,,,0.00,,2013-05-12 15:53:00,
2013-05-12 11:02:00,48.0,31.0,30.18,NNW,346,7.0,13.0,52,0.00,,,0.00,,2013-05-12 16:02:00,
2013-05-12 11:12:00,48.0,31.0,30.18,NNW,346,7.0,13.0,52,0.00,,,0.00,,2013-05-12 16:12:00,
2013-05-12 11:23:00,49.0,31.0,30.17,WNW,283,6.0,15.0,50,0.00,,,0.00,,2013-05-12 16:23:00,
2013-05-12 11:33:00,49.0,32.0,30.17,NW,319,8.0,15.0,51,0.00,,,0.00,,2013-05-12 16:33:00,
2013-05-12 11:42:00,49.0,32.0,30.17,NW,319,8.0,15.0,51,0.00,,,0.00,,2013-05-12 16:42:00,
2013-05-12 11:53:00,50.0,32.0,30.18,NW,309,6.0,14.0,49,0.00,,,0.00,,2013-05-12 16:53:00,
2013-05-12 12:02:00,50.0,33.0,30.17,NNE,13,6.0,15.0,52,0.00,,,0.00,,2013-05-12 17:02:00,
2013-05-12 12:12:00,50.0,33.0,30.17,NNE,13,6.0,15.0,52,0.00,,,0.00,,2013-05-12 17:12:00,
2013-05-12 12:22:00,50.0,32.0,30.17,WNW,284,7.0,17.0,49,0.00,,,0.00,,2013-05-12 17:22:00,
2013-05-12 12:32:00,51.0,31.0,30.17,NNW,328,6.0,13.0,46,0.00,,,0.00,,2013-05-12 17:32:00,
2013-05-12 12:42:00,51.0,31.0,30.17,NNW,328,6.0,13.0,46,0.00,,,0.00,,2013-05-12 17:42:00,
2013-05-12 12:53:00,51.0,30.0,30.17,NNW,347,9.0,15.0,45,0.00,,,0.00,,2013-05-12 17:53:00,
2013-05-12 13:01:00,51.0,31.0,30.17,WNW,300,5.0,14.0,46,0.00,,,0.00,,2013-05-12 18:01:00,
2013-05-12 13:12:00,51.0,31.0,30.17,WNW,300,5.0,14.0,46,0.00,,,0.00,,2013-05-12 18:12:00,
2013-05-12 13:22:00,52.0,31.0,30.16,WSW,248,6.0,19.0,44,0.00,,,0.00,,2013-05-12 18:22:00,
2013-05-12 13:32:00,52.0,30.0,30.16,NNW,333,7.0,18.0,42,0.00,,,0.00,,2013-05-12 18:32:00,
2013-05-12 13:42:00,52.0,30.0,30.16,NNW,333,7.0,18.0,42,0.00,,,0.00,,2013-05-12 18:42:00,
2013-05-12 13:52:00,53.0,30.0,30.16,West,270,7.0,16.0,41,0.00,,,0.00,,2013-05-12 18:52:00,
2013-05-12 14:01:00,53.0,29.0,30.16,West,279,8.0,14.0,40,0.00,,,0.00,,2013-05-12 19:01:00,
2013-05-12 14:11:00,53.0,29.0,30.16,West,279,8.0,14.0,40,0.00,,,0.00,,2013-05-12 19:11:00,
2013-05-12 14:21:00,54.0,29.0,30.16,WSW,240,9.0,18.0,38,0.00,,,0.00,,2013-05-12 19:21:00,
2013-05-12 14:32:00,54.0,29.0,30.15,WNW,297,11.0,19.0,38,0.00,,,0.00,,2013-05-12 19:32:00,
2013-05-12 14:42:00,54.0,29.0,30.15,WNW,297,11.0,19.0,38,0.00,,,0.00,,2013-05-12 19:42:00,
2013-05-12 14:52:00,54.0,28.0,30.15,NW,307,7.0,17.0,37,0.00,,,0.00,,2013-05-12 19:52:00,
2013-05-12 15:02:00,54.0,28.0,30.14,NNW,338,8.0,15.0,36,0.00,,,0.00,,2013-05-12 20:02:00,
2013-05-12 15:11:00,54.0,28.0,30.14,NNW,338,8.0,15.0,36,0.00,,,0.00,,2013-05-12 20:11:00,
2013-05-12 15:21:00,55.0,27.0,30.14,WNW,288,10.0,27.0,34,0.00,,,0.00,,2013-05-12 20:21:00,
2013-05-12 15:32:00,55.0,27.0,30.14,NW,309,8.0,17.0,34,0.00,,,0.00,,2013-05-12 20:32:00,
2013-05-12 15:42:00,55.0,27.0,30.14,NW,309,8.0,17.0,34,0.00,,,0.00,,2013-05-12 20:42:00,
2013-05-12 15:52:00,55.0,26.0,30.13,NNW,348,7.0,18.0,33,0.00,,,0.00,,2013-05-12 20:52:00,
2013-05-12 16:01:00,55.0,26.0,30.13,WSW,255,5.0,16.0,33,0.00,,,0.00,,2013-05-12 21:01:00,
2013-05-12 16:11:00,55.0,26.0,30.13,WSW,255,5.0,16.0,33,0.00,,,0.00,,2013-05-12 21:11:00,
2013-05-12 16:21:00,55.0,26.0,30.13,West,277,9.0,18.0,33,0.00,,,0.00,,2013-05-12 21:21:00,
2013-05-12 16:33:00,55.0,29.0,30.13,WNW,300,6.0,18.0,36,0.00,,,0.00,,2013-05-12 21:33:00,
2013-05-12 16:42:00,55.0,29.0,30.13,WNW,300,6.0,18.0,36,0.00,,,0.00,,2013-05-12 21:42:00,
2013-05-12 16:53:00,55.0,26.0,30.12,NW,306,8.0,16.0,33,0.00,,,0.00,,2013-05-12 21:53:00,
2013-05-12 17:02:00,56.0,27.0,30.12,WSW,257,7.0,17.0,33,0.00,,,0.00,,2013-05-12 22:02:00,
2013-05-12 17:12:00,56.0,27.0,30.12,WSW,257,7.0,17.0,33,0.00,,,0.00,,2013-05-12 22:12:00,
2013-05-12 17:23:00,55.0,28.0,30.12,West,277,7.0,16.0,35,0.00,,,0.00,,2013-05-12 22:23:00,
2013-05-12 17:33:00,55.0,29.0,30.12,NW,323,8.0,18.0,37,0.00,,,0.00,,2013-05-12 22:33:00,
2013-05-12 17:42:00,55.0,29.0,30.12,NW,323,8.0,18.0,37,0.00,,,0.00,,2013-05-12 22:42:00,
2013-05-12 17:52:00,56.0,27.0,30.12,WNW,290,6.0,17.0,33,0.00,,,0.00,,2013-05-12 22:52:00,
2013-05-12 18:02:00,56.0,28.0,30.12,WNW,301,8.0,15.0,34,0.00,,,0.00,,2013-05-12 23:02:00,
2013-05-12 18:12:00,56.0,28.0,30.12,WNW,301,8.0,15.0,34,0.00,,,0.00,,2013-05-12 23:12:00,
2013-05-12 18:22:00,55.0,29.0,30.11,NW,317,6.0,13.0,36,0.00,,,0.00,,2013-05-12 23:22:00,
2013-05-12 18:32:00,55.0,27.0,30.12,West,276,7.0,16.0,34,0.00,,,0.00,,2013-05-12 23:32:00,
2013-05-12 18:42:00,55.0,27.0,30.12,West,276,7.0,16.0,34,0.00,,,0.00,,2013-05-12 23:42:00,
2013-05-12 18:52:00,55.0,27.0,30.11,WNW,283,5.0,20.0,34,0.00,,,0.00,,2013-05-12 23:52:00,
2013-05-12 19:01:00,55.0,28.0,30.11,WSW,248,5.0,12.0,35,0.00,,,0.00,,2013-05-13 00:01:00,
2013-05-12 19:11:00,55.0,28.0,30.11,WSW,248,5.0,12.0,35,0.00,,,0.00,,2013-05-13 00:11:00,
2013-05-12 19:21:00,54.0,28.0,30.11,WNW,300,2.0,11.0,36,0.00,,,0.00,,2013-05-13 00:21:00,
2013-05-12 19:32:00,54.0,28.0,30.11,West,261,6.0,14.0,36,0.00,,,0.00,,2013-05-13 00:32:00,
2013-05-12 19:42:00,54.0,28.0,30.11,West,261,6.0,14.0,36,0.00,,,0.00,,2013-05-13 00:42:00,
2013-05-12 19:52:00,53.0,28.0,30.11,WNW,294,5.0,11.0,38,0.00,,,0.00,,2013-05-13 00:52:00,
2013-05-12 20:01:00,52.0,28.0,30.12,WNW,287,0.0,10.0,39,0.00,,,0.00,,2013-05-13 01:01:00,
2013-05-12 20:11:00,52.0,28.0,30.12,WNW,287,0.0,10.0,39,0.00,,,0.00,,2013-05-13 01:11:00,
2013-05-12 20:22:00,52.0,29.0,30.12,WNW,284,0.0,7.0,41,0.00,,,0.00,,2013-05-13 01:22:00,
2013-05-12 20:31:00,51.0,30.0,30.12,West,265,0.0,5.0,44,0.00,,,0.00,,2013-05-13 01:31:00,
2013-05-12 20:42:00,51.0,30.0,30.12,West,265,0.0,5.0,44,0.00,,,0.00,,2013-05-13 01:42:00,
2013-05-12 20:52:00,50.0,30.0,30.13,WSW,242,1.0,4.0,46,0.00,,,0.00,,2013-05-13 01:52:00,
2013-05-12 21:01:00,49.0,30.0,30.14,NW,313,1.0,3.0,47,0.00,,,0.00,,2013-05-13 02:01:00,
2013-05-12 21:11:00,49.0,30.0,30.14,NW,313,1.0,3.0,47,0.00,,,0.00,,2013-05-13 02:11:00,
2013-05-12 21:21:00,49.0,31.0,30.14,NW,304,0.0,3.0,49,0.00,,,0.00,,2013-05-13 02:21:00,
2013-05-12 21:31:00,47.0,32.0,30.15,West,264,0.0,1.0,55,0.00,,,0.00,,2013-05-13 02:31:00,
2013-05-12 21:41:00,47.0,32.0,30.15,West,264,0.0,1.0,55,0.00,,,0.00,,2013-05-13 02:41:00,
2013-05-12 21:52:00,46.0,32.0,30.15,WSW,238,0.0,2.0,59,0.00,,,0.00,,2013-05-13 02:52:00,
2013-05-12 22:01:00,45.0,31.0,30.15,WSW,248,0.0,3.0,58,0.00,,,0.00,,2013-05-13 03:01:00,
2013-05-12 22:11:00,45.0,31.0,30.15,WSW,248,0.0,3.0,58,0.00,,,0.00,,2013-05-13 03:11:00,
2013-05-12 22:21:00,45.0,31.0,30.15,West,272,1.0,5.0,58,0.00,,,0.00,,2013-05-13 03:21:00,
2013-05-12 22:32:00,46.0,32.0,30.15,West,261,0.0,4.0,59,0.00,,,0.00,,2013-05-13 03:32:00,
2013-05-12 22:42:00,46.0,32.0,30.15,West,261,0.0,4.0,59,0.00,,,0.00,,2013-05-13 03:42:00,
2013-05-12 22:53:00,45.0,32.0,30.15,WSW,245,2.0,4.0,59,0.00,,,0.00,,2013-05-13 03:53:00,
2013-05-12 23:02:00,46.0,32.0,30.15,West,275,1.0,4.0,57,0.00,,,0.00,,2013-05-13 04:02:00,
2013-05-12 23:12:00,46.0,32.0,30.15,West,275,1.0,4.0,57,0.00,,,0.00,,2013-05-13 04:12:00,
2013-05-12 23:23:00,46.0,32.0,30.15,West,275,1.0,4.0,57,0.00,,,0.00,,2013-05-13 04:23:00,
2013-05-12 23:32:00,45.0,31.0,30.15,WSW,253,0.0,2.0,58,0.00,,,0.00,,2013-05-13 04:32:00,
2013-05-12 23:42:00,45.0,31.0,30.15,WSW,253,0.0,2.0,58,0.00,,,0.00,,2013-05-13 04:42:00,
2013-05-12 23:52:00,45.0,32.0,30.15,WSW,253,0.0,2.0,59,0.00,,,0.00,,2013-05-13 04:52:00,